FW6720 Weather Reports


time (UTC)temp
C
wind
direction
speed
KPH
gust
KPH
rain 1hr
cm
rain 24hr
cm
rain mn
cm
humidity
%
barometer
mb
20260506001859 18 7 0.0 0.0 0.00 0.00 0.00 68 1017.1
20260506001356 18 7 0.0 0.0 0.00 0.00 0.00 65 1017.0
20260506000853 18 5 0.0 0.0 0.00 0.00 0.00 66 1016.9
20260506000353 18 5 0.0 0.0 0.00 0.00 0.00 66 1017.0
20260505235848 18 7 0.0 0.0 0.00 0.00 0.00 67 1016.9
20260505235345 18 8 0.0 0.0 0.00 0.00 0.00 66 1017.2
20260505234842 18 5 3.2 4.8 0.00 0.00 0.00 65 1017.2
20260505234340 18 56 0.0 0.0 0.00 0.00 0.00 66 1017.2
20260505233836 18 35 0.0 0.0 0.00 0.00 0.00 66 1017.1
20260505233334 18 64 0.0 1.6 0.00 0.00 0.00 65 1017.4
20260505232832 18 62 0.0 0.0 0.00 0.00 0.00 65 1017.2
20260505232330 19 29 0.0 1.6 0.00 0.00 0.00 64 1017.4
20260505231826 19 30 0.0 0.0 0.00 0.00 0.00 65 1017.3
20260505231324 18 133 1.6 1.6 0.00 0.00 0.00 67 1017.5
20260505230822 18 26 0.0 0.0 0.00 0.00 0.00 66 1017.5
20260505230318 18 23 0.0 1.6 0.00 0.00 0.00 65 1017.5
20260505225815 18 48 0.0 0.0 0.00 0.00 0.00 65 1017.9
20260505225312 19 74 0.0 0.0 0.00 0.00 0.00 65 1017.5
20260505224807 19 24 0.0 3.2 0.00 0.00 0.00 64 1017.7
20260505224305 19 23 0.0 0.0 0.00 0.00 0.00 64 1017.7
20260505223802 18 302 1.6 3.2 0.00 0.00 0.00 65 1017.7
20260505223259 18 26 0.0 0.0 0.00 0.00 0.00 65 1018.0
20260505222755 18 26 0.0 0.0 0.00 0.00 0.00 64 1017.5
20260505222251 18 20 0.0 0.0 0.00 0.00 0.00 67 1017.9
20260505221748 20 27 0.0 1.6 0.00 0.00 0.00 65 1017.6
20260505221245 18 26 0.0 0.0 0.00 0.00 0.00 65 1018.0
20260505220742 18 61 0.0 0.0 0.00 0.00 0.00 65 1018.0
20260505220239 18 63 0.0 0.0 0.00 0.00 0.00 65 1018.2
20260505215737 18 56 0.0 0.0 0.00 0.00 0.00 65 1018.0
20260505215234 17 51 0.0 0.0 0.00 0.00 0.00 68 1018.1
20260505214732 18 115 3.2 4.8 0.00 0.00 0.00 67 1018.2
20260505214229 18 51 0.0 0.0 0.00 0.00 0.00 65 1018.2
20260505213726 17 111 0.0 0.0 0.00 0.00 0.00 69 1018.3
20260505213224 17 35 0.0 0.0 0.00 0.00 0.00 68 1018.2
20260505212719 17 64 0.0 1.6 0.00 0.00 0.00 68 1018.3
20260505212212 17 168 0.0 0.0 0.00 0.00 0.00 68 1018.4
20260505211708 17 168 0.0 0.0 0.00 0.00 0.00 68 1018.5
20260505211206 17 52 0.0 0.0 0.00 0.00 0.00 71 1018.5
20260505210702 16 64 0.0 0.0 0.00 0.00 0.00 70 1018.5
20260505210159 16 31 0.0 0.0 0.00 0.00 0.00 69 1018.4
20260505205656 16 87 0.0 0.0 0.00 0.00 0.00 69 1018.6
20260505205154 16 30 0.0 0.0 0.00 0.00 0.00 70 1018.6
20260505204651 16 59 0.0 0.0 0.00 0.00 0.00 71 1018.6
20260505204149 16 120 0.0 0.0 0.00 0.00 0.00 70 1018.8
20260505203646 15 121 0.0 0.0 0.00 0.00 0.00 72 1018.8
20260505203142 15 127 0.0 0.0 0.00 0.00 0.00 72 1018.9
20260505202638 15 126 0.0 0.0 0.00 0.00 0.00 72 1018.8
20260505202134 15 126 0.0 0.0 0.00 0.00 0.00 72 1018.8
20260505201630 15 126 0.0 0.0 0.00 0.00 0.00 72 1018.8
20260505201128 15 27 0.0 0.0 0.00 0.00 0.00 71 1018.8
20260505200626 16 27 0.0 0.0 0.00 0.00 0.00 70 1018.9
20260505200123 16 28 0.0 0.0 0.00 0.00 0.00 71 1018.6
20260505195619 15 28 0.0 0.0 0.00 0.00 0.00 73 1018.7
20260505195117 15 28 0.0 0.0 0.00 0.00 0.00 72 1018.6
20260505194608 15 27 0.0 0.0 0.00 0.00 0.00 71 1019.0
20260505194104 15 26 0.0 0.0 0.00 0.00 0.00 72 1018.8
20260505193601 15 26 0.0 0.0 0.00 0.00 0.00 73 1018.8
20260505193058 15 44 0.0 0.0 0.00 0.00 0.00 73 1018.7
20260505192557 15 44 0.0 0.0 0.00 0.00 0.00 72 1018.8
20260505192054 15 43 0.0 0.0 0.00 0.00 0.00 72 1018.8
20260505191552 15 43 0.0 0.0 0.00 0.00 0.00 72 1018.7
20260505191049 15 43 0.0 0.0 0.00 0.00 0.00 72 1018.7
20260505190544 15 61 0.0 0.0 0.00 0.00 0.00 75 1019.0
20260505190040 15 24 0.0 0.0 0.00 0.00 0.00 73 1018.8
20260505185537 15 22 0.0 0.0 0.00 0.00 0.00 73 1018.8
20260505185034 14 23 0.0 0.0 0.00 0.00 0.00 73 1019.0
20260505184531 15 25 1.6 1.6 0.00 0.00 0.00 73 1018.8
20260505184027 14 23 0.0 0.0 0.00 0.00 0.00 74 1018.6
20260505183524 15 23 0.0 0.0 0.00 0.00 0.00 74 1018.6
20260505183022 15 24 0.0 0.0 0.00 0.00 0.00 72 1018.7
20260505182518 14 24 0.0 0.0 0.00 0.00 0.00 72 1018.8
20260505182014 13 25 0.0 0.0 0.00 0.00 0.00 74 1018.8
20260505181511 14 23 0.0 0.0 0.00 0.00 0.00 75 1018.5
20260505181008 13 21 0.0 0.0 0.00 0.00 0.00 74 1018.8
20260505180504 13 21 0.0 0.0 0.00 0.00 0.00 75 1018.8
20260505180002 13 21 0.0 0.0 0.00 0.00 0.00 75 1019.0
20260505175457 13 21 0.0 0.0 0.00 0.00 0.00 75 1018.7
20260505174954 13 21 0.0 0.0 0.00 0.00 0.00 77 1018.8
20260505174451 13 21 0.0 0.0 0.00 0.00 0.00 77 1018.7
20260505173947 13 21 0.0 0.0 0.00 0.00 0.00 75 1018.7
20260505173444 13 21 0.0 0.0 0.00 0.00 0.00 76 1018.7
20260505172941 13 21 0.0 0.0 0.00 0.00 0.00 77 1018.7
20260505172439 13 21 0.0 0.0 0.00 0.00 0.00 77 1018.7
20260505171938 13 21 0.0 0.0 0.00 0.00 0.00 77 1018.5
20260505171435 13 21 0.0 0.0 0.00 0.00 0.00 76 1018.6
20260505170932 13 21 0.0 0.0 0.00 0.00 0.00 76 1018.4
20260505170429 13 20 0.0 0.0 0.00 0.00 0.00 76 1018.6
20260505165924 13 20 0.0 0.0 0.00 0.00 0.00 77 1018.3
20260505165420 13 20 0.0 0.0 0.00 0.00 0.00 78 1018.2
20260505164915 13 20 0.0 0.0 0.00 0.00 0.00 76 1018.3
20260505164413 13 20 0.0 0.0 0.00 0.00 0.00 78 1018.3
20260505163911 12 20 0.0 0.0 0.00 0.00 0.00 77 1018.3
20260505163410 12 20 0.0 0.0 0.00 0.00 0.00 78 1018.2
20260505162908 12 21 0.0 0.0 0.00 0.00 0.00 78 1018.2
20260505162403 12 20 0.0 0.0 0.00 0.00 0.00 78 1018.1
20260505161900 12 20 0.0 0.0 0.00 0.00 0.00 78 1018.2
20260505161357 12 20 0.0 0.0 0.00 0.00 0.00 79 1018.4
20260505160854 12 20 0.0 0.0 0.00 0.00 0.00 78 1018.3
20260505160352 12 20 0.0 0.0 0.00 0.00 0.00 80 1018.3
20260505153325 12 20 0.0 0.0 0.00 0.00 0.00 80 1018.2
20260505152822 12 20 0.0 0.0 0.00 0.00 0.00 80 1017.9
20260505152319 11 20 0.0 0.0 0.00 0.00 0.00 81 1018.2
20260505151814 11 20 0.0 0.0 0.00 0.00 0.00 80 1018.0
20260505151310 11 20 0.0 0.0 0.00 0.00 0.00 81 1018.1
20260505150807 11 20 0.0 0.0 0.00 0.00 0.00 81 1017.9
20260505150305 11 20 0.0 0.0 0.00 0.00 0.00 81 1018.2
20260505140229 11 20 0.0 0.0 0.00 0.00 0.00 84 1017.4
20260505130152 10 22 0.0 0.0 0.00 0.00 0.00 88 1017.0
20260505124637 10 22 0.0 0.0 0.00 0.00 0.00 87 1016.9
20260505124133 10 22 0.0 0.0 0.00 0.00 0.00 87 1017.0
20260505123629 10 22 0.0 0.0 0.00 0.00 0.00 87 1017.1
20260505123126 10 22 0.0 0.0 0.00 0.00 0.00 87 1017.0
20260505122623 10 22 0.0 0.0 0.00 0.00 0.00 86 1016.8
20260505122120 10 22 0.0 0.0 0.00 0.00 0.00 87 1016.9
20260505121616 10 22 0.0 0.0 0.00 0.00 0.00 86 1016.9
20260505121113 10 22 0.0 0.0 0.00 0.00 0.00 86 1017.1
20260505120609 10 22 0.0 0.0 0.00 0.00 0.00 87 1017.0
20260505120105 10 22 0.0 0.0 0.00 0.00 0.00 87 1016.9
20260505115600 10 22 0.0 0.0 0.00 0.00 0.00 89 1017.2
20260505115058 10 22 0.0 0.0 0.00 0.00 0.00 89 1016.9
20260505114555 10 22 0.0 0.0 0.00 0.00 0.00 89 1017.0
20260505114051 10 22 0.0 0.0 0.00 0.00 0.00 89 1016.8
20260505113547 10 22 0.0 0.0 0.00 0.00 0.00 89 1016.8
20260505113044 10 22 0.0 0.0 0.00 0.00 0.00 89 1016.8
20260505112540 10 22 0.0 0.0 0.00 0.00 0.00 89 1016.7
20260505112038 10 22 0.0 0.0 0.00 0.00 0.00 89 1016.8
20260505111532 10 22 0.0 0.0 0.00 0.00 0.00 89 1016.9
20260505111028 10 22 0.0 0.0 0.00 0.00 0.00 89 1016.7
20260505110525 10 22 0.0 0.0 0.00 0.00 0.00 89 1016.7
20260505101957 10 22 0.0 0.0 0.00 0.00 0.00 90 1016.5
20260505101450 10 22 0.0 0.0 0.00 0.00 0.00 90 1016.5
20260505100946 10 22 0.0 0.0 0.00 0.00 0.00 90 1016.5
20260505100443 10 22 0.0 0.0 0.00 0.00 0.00 90 1016.7
20260505095939 10 22 0.0 0.0 0.00 0.00 0.00 90 1016.5
20260505095436 10 22 0.0 0.0 0.00 0.00 0.00 90 1016.5
20260505094932 10 22 0.0 0.0 0.00 0.00 0.00 90 1016.7
20260505094429 10 22 0.0 0.0 0.00 0.00 0.00 90 1016.5
20260505093925 9 22 0.0 0.0 0.00 0.00 0.00 90 1016.5
20260505093422 9 22 0.0 0.0 0.00 0.00 0.00 91 1016.5
20260505092919 9 22 0.0 0.0 0.00 0.00 0.00 91 1016.4
20260505092417 9 22 0.0 0.0 0.00 0.00 0.00 90 1016.3
20260505091915 9 22 0.0 0.0 0.00 0.00 0.00 90 1016.3
20260505091412 9 22 0.0 0.0 0.00 0.00 0.00 90 1016.3
20260505090910 9 22 0.0 0.0 0.00 0.00 0.00 90 1016.4
20260505090408 9 22 0.0 0.0 0.00 0.00 0.00 90 1016.3
20260505085905 9 22 0.0 0.0 0.00 0.00 0.00 90 1016.3
20260505085403 9 22 0.0 0.0 0.00 0.00 0.00 89 1016.2
20260505084901 9 22 0.0 0.0 0.00 0.00 0.00 89 1016.3
20260505084359 9 22 0.0 0.0 0.00 0.00 0.00 89 1016.2
20260505083856 9 22 0.0 0.0 0.00 0.00 0.00 89 1016.1
20260505083354 9 22 0.0 0.0 0.00 0.00 0.00 89 1016.3
20260505082849 9 22 0.0 0.0 0.00 0.00 0.00 89 1016.2
20260505082346 9 22 0.0 0.0 0.00 0.00 0.00 88 1015.9
20260505081842 10 22 0.0 0.0 0.00 0.00 0.00 88 1016.0
20260505081339 10 22 0.0 0.0 0.00 0.00 0.00 87 1015.9
20260505080836 10 23 0.0 0.0 0.00 0.00 0.00 87 1015.8
20260505080332 10 23 0.0 0.0 0.00 0.00 0.00 86 1015.9
20260505075827 10 23 0.0 0.0 0.00 0.00 0.00 87 1015.8
20260505075325 10 23 0.0 0.0 0.00 0.00 0.00 88 1015.7
20260505074822 10 23 0.0 0.0 0.00 0.00 0.00 89 1015.8
20260505074319 10 23 0.0 0.0 0.00 0.00 0.00 89 1016.0
20260505073816 10 23 0.0 0.0 0.00 0.00 0.00 89 1015.8
20260505073314 10 23 0.0 0.0 0.00 0.00 0.00 89 1015.8
20260505072811 10 23 0.0 0.0 0.00 0.00 0.00 89 1015.5
20260505072307 10 23 0.0 0.0 0.00 0.00 0.00 88 1015.7
20260505071803 10 23 0.0 0.0 0.00 0.00 0.00 88 1015.6
20260505071300 10 23 0.0 0.0 0.00 0.00 0.00 88 1015.4
20260505070758 10 23 0.0 0.0 0.00 0.00 0.00 88 1015.4
20260505070254 10 23 0.0 0.0 0.00 0.00 0.00 88 1015.6
20260505065749 10 23 0.0 0.0 0.00 0.00 0.00 87 1015.3
20260505065246 10 23 0.0 0.0 0.00 0.00 0.00 86 1015.6
20260505064743 10 23 0.0 0.0 0.00 0.00 0.00 86 1015.5
20260505064241 10 23 0.0 0.0 0.00 0.00 0.00 86 1015.5
20260505063738 10 23 0.0 0.0 0.00 0.00 0.00 86 1015.3
20260505063234 10 23 0.0 0.0 0.00 0.00 0.00 85 1015.1
20260505062731 11 23 0.0 0.0 0.00 0.00 0.00 85 1015.0
20260505062228 11 23 0.0 0.0 0.00 0.00 0.00 84 1015.0
20260505061725 11 23 0.0 0.0 0.00 0.00 0.00 84 1014.9
20260505061223 11 23 0.0 0.0 0.00 0.00 0.00 84 1014.9
20260505060720 11 23 0.0 0.0 0.00 0.00 0.00 83 1014.8
20260505060217 11 23 0.0 0.0 0.00 0.00 0.00 83 1014.7
20260505055713 12 23 0.0 0.0 0.00 0.00 0.00 83 1014.7
20260505055209 12 23 0.0 0.0 0.00 0.00 0.00 81 1014.6
20260505054707 12 23 0.0 0.0 0.00 0.00 0.00 80 1014.8
20260505054204 12 23 0.0 0.0 0.00 0.00 0.00 80 1014.7
20260505053702 12 23 0.0 0.0 0.00 0.00 0.00 81 1014.8
20260505053158 11 23 0.0 0.0 0.00 0.00 0.00 83 1014.7
20260505052655 11 23 0.0 0.0 0.00 0.00 0.00 82 1014.6
20260505052153 12 23 0.0 0.0 0.00 0.00 0.00 82 1014.8
20260505051650 12 23 0.0 0.0 0.00 0.00 0.00 82 1014.8
20260505051148 12 23 0.0 0.0 0.00 0.00 0.00 81 1014.9
20260505050645 12 23 0.0 0.0 0.00 0.00 0.00 80 1014.6
20260505050143 12 23 0.0 0.0 0.00 0.00 0.00 80 1014.4
20260505041613 13 23 0.0 0.0 0.00 0.00 0.00 77 1014.3
20260505041110 13 23 0.0 0.0 0.00 0.00 0.00 76 1014.1
20260505040607 13 23 0.0 0.0 0.00 0.00 0.00 77 1014.3
20260505040104 13 23 0.0 0.0 0.00 0.00 0.00 77 1014.2
20260505035601 13 23 0.0 0.0 0.00 0.00 0.00 77 1014.1
20260505035057 14 23 0.0 0.0 0.00 0.00 0.00 77 1014.1
20260505034554 14 23 0.0 0.0 0.00 0.00 0.00 76 1014.0
20260505034050 14 23 0.0 0.0 0.00 0.00 0.00 76 1014.2
20260505033547 15 23 0.0 0.0 0.00 0.00 0.00 75 1013.9
20260505033046 15 23 0.0 0.0 0.00 0.00 0.00 75 1013.8
20260505032544 15 23 0.0 0.0 0.00 0.00 0.00 73 1013.7
20260505032040 15 22 0.0 0.0 0.00 0.00 0.00 73 1013.8
20260505031537 15 22 0.0 0.0 0.00 0.00 0.00 73 1013.7
20260505031033 16 21 0.0 0.0 0.00 0.00 0.00 72 1013.5
20260505030530 16 21 0.0 0.0 0.00 0.00 0.00 72 1013.4
20260505030026 16 21 0.0 0.0 0.00 0.00 0.00 71 1013.4
20260505025522 16 21 0.0 0.0 0.00 0.00 0.00 71 1013.4
20260505025022 16 21 0.0 0.0 0.00 0.00 0.00 71 1013.3
20260505024518 17 21 0.0 0.0 0.00 0.00 0.00 69 1013.3
20260505024015 17 21 0.0 0.0 0.00 0.00 0.00 68 1013.1
20260505023512 17 21 0.0 0.0 0.00 0.00 0.00 67 1013.1
20260505023010 17 21 0.0 0.0 0.00 0.00 0.00 67 1013.0
20260505022507 18 21 0.0 0.0 0.00 0.00 0.00 65 1013.0
20260505022004 18 21 0.0 0.0 0.00 0.00 0.00 65 1013.1
20260505021500 18 21 0.0 0.0 0.00 0.00 0.00 65 1013.0
20260505020956 18 21 0.0 0.0 0.00 0.00 0.00 65 1012.8
20260505020452 18 21 0.0 0.0 0.00 0.00 0.00 63 1012.8
20260505015948 19 21 0.0 0.0 0.00 0.00 0.00 62 1013.0
20260505015446 20 21 0.0 0.0 0.00 0.00 0.00 62 1012.9
20260505014943 20 21 0.0 0.0 0.00 0.00 0.00 62 1012.9
20260505014440 20 21 0.0 0.0 0.00 0.00 0.00 61 1012.9
20260505013937 20 21 0.0 0.0 0.00 0.00 0.00 61 1013.0
20260505013434 20 21 0.0 1.6 0.00 0.00 0.00 60 1013.1
20260505012931 21 21 0.0 0.0 0.00 0.00 0.00 60 1013.0
20260505012430 21 21 0.0 0.0 0.00 0.00 0.00 60 1012.7
20260505011926 21 20 1.6 4.8 0.00 0.00 0.00 59 1012.9
20260505011422 21 21 0.0 0.0 0.00 0.00 0.00 58 1012.9
20260505010919 21 21 0.0 1.6 0.00 0.00 0.00 58 1012.8
20260505010414 21 21 0.0 0.0 0.00 0.00 0.00 58 1012.9
20260505005911 21 21 0.0 1.6 0.00 0.00 0.00 57 1012.4
20260505005408 22 21 0.0 0.0 0.00 0.00 0.00 57 1012.9
20260505004905 22 21 0.0 0.0 0.00 0.00 0.00 57 1012.7
20260505004401 22 21 0.0 0.0 0.00 0.00 0.00 57 1012.9
20260505003858 22 21 0.0 0.0 0.00 0.00 0.00 56 1012.8
20260505003356 22 21 0.0 0.0 0.00 0.00 0.00 56 1012.9
20260505002852 22 22 0.0 0.0 0.00 0.00 0.00 56 1012.7
20260505002349 22 21 0.0 0.0 0.00 0.00 0.00 55 1012.6